Previsão horária em Aba-el-Baul

Hoje, 23 Janeiro, Sábado

Tempo Temperatura Precipitação Vento Pressão Humidade
00:00 +10°C° 0 mm 5 m/s 762 mmHg 76%
01:00 +10°C° 0 mm 5 m/s 761 mmHg 78%
02:00 +10°C° 0 mm 5 m/s 761 mmHg 80%
03:00 +11°C° 0 mm 4 m/s 761 mmHg 83%
04:00 +11°C° 0 mm 4 m/s 761 mmHg 82%
05:00 +11°C° 0 mm 4 m/s 762 mmHg 82%
06:00 +11°C° 0 mm 4 m/s 762 mmHg 81%
07:00 +13°C° 0 mm 5 m/s 763 mmHg 74%
08:00 +15°C° 0 mm 6 m/s 763 mmHg 66%
09:00 +17°C° 0 mm 6 m/s 763 mmHg 58%
10:00 +19°C° 0 mm 6 m/s 763 mmHg 52%
11:00 +20°C° 0 mm 6 m/s 762 mmHg 46%
12:00 +22°C° 0 mm 5 m/s 762 mmHg 40%
13:00 +22°C° 0 mm 5 m/s 762 mmHg 40%
14:00 +22°C° 0 mm 5 m/s 761 mmHg 40%
15:00 +22°C° 0 mm 5 m/s 761 mmHg 40%
16:00 +20°C° 0 mm 4 m/s 761 mmHg 49%
17:00 +18°C° 0 mm 4 m/s 761 mmHg 59%
18:00 +17°C° 0 mm 3 m/s 761 mmHg 68%
19:00 +16°C° 0 mm 3 m/s 761 mmHg 68%
20:00 +15°C° 0 mm 4 m/s 761 mmHg 69%
21:00 +14°C° 0 mm 4 m/s 762 mmHg 70%
22:00 +14°C° 0 mm 4 m/s 761 mmHg 71%
23:00 +14°C° 0 mm 4 m/s 761 mmHg 72%

Amanhã, 24 Janeiro, Domingo

Tempo Temperatura Precipitação Vento Pressão Humidade
00:00 +13°C° 0 mm 4 m/s 761 mmHg 72%
01:00 +13°C° 0 mm 4 m/s 761 mmHg 74%
02:00 +13°C° 0 mm 4 m/s 761 mmHg 76%
03:00 +13°C° 0 mm 4 m/s 761 mmHg 78%
04:00 +13°C° 0 mm 4 m/s 761 mmHg 79%
05:00 +13°C° 0 mm 4 m/s 761 mmHg 81%
06:00 +12°C° 0 mm 4 m/s 761 mmHg 82%
07:00 +14°C° 0 mm 4 m/s 762 mmHg 74%
08:00 +17°C° 0 mm 4 m/s 762 mmHg 67%
09:00 +19°C° 0 mm 5 m/s 763 mmHg 59%
10:00 +20°C° 0 mm 4 m/s 762 mmHg 53%
11:00 +21°C° 0 mm 4 m/s 762 mmHg 47%
12:00 +22°C° 0 mm 3 m/s 761 mmHg 42%
13:00 +22°C° 0 mm 4 m/s 761 mmHg 40%
14:00 +22°C° 0 mm 4 m/s 760 mmHg 39%
15:00 +22°C° 0 mm 5 m/s 760 mmHg 38%
16:00 +20°C° 0 mm 4 m/s 760 mmHg 42%
17:00 +18°C° 0 mm 4 m/s 760 mmHg 47%
18:00 +17°C° 0 mm 4 m/s 760 mmHg 51%
19:00 +15°C° 0 mm 4 m/s 761 mmHg 55%
20:00 +14°C° 0 mm 3 m/s 761 mmHg 59%
21:00 +13°C° 0 mm 3 m/s 761 mmHg 62%
22:00 +13°C° 0 mm 3 m/s 761 mmHg 66%
23:00 +13°C° 0 mm 3 m/s 761 mmHg 69%

Depois de amanhã, 25 Janeiro, Segunda-feira

Tempo Temperatura Precipitação Vento Pressão Humidade
00:00 +13°C° 0 mm 3 m/s 760 mmHg 73%
01:00 +13°C° 0 mm 3 m/s 760 mmHg 76%
02:00 +13°C° 0 mm 3 m/s 760 mmHg 79%
03:00 +13°C° 0 mm 3 m/s 760 mmHg 81%
04:00 +12°C° 0 mm 3 m/s 760 mmHg 82%
05:00 +12°C° 0 mm 4 m/s 760 mmHg 82%
06:00 +12°C° 0 mm 4 m/s 761 mmHg 83%
07:00 +14°C° 0 mm 4 m/s 761 mmHg 73%
08:00 +16°C° 0 mm 5 m/s 761 mmHg 63%
09:00 +19°C° 0 mm 5 m/s 762 mmHg 54%
10:00 +20°C° 0 mm 5 m/s 762 mmHg 46%
11:00 +22°C° 0 mm 5 m/s 761 mmHg 38%
12:00 +25°C° 0 mm 5 m/s 761 mmHg 31%
13:00 +25°C° 0 mm 5 m/s 760 mmHg 31%
14:00 +25°C° 0 mm 5 m/s 760 mmHg 31%
15:00 +25°C° 0 mm 4 m/s 760 mmHg 30%
16:00 +22°C° 0 mm 4 m/s 760 mmHg 39%
17:00 +20°C° 0 mm 4 m/s 760 mmHg 48%
18:00 +18°C° 0 mm 4 m/s 760 mmHg 56%
19:00 +17°C° 0 mm 4 m/s 760 mmHg 61%
20:00 +15°C° 0 mm 4 m/s 761 mmHg 65%
21:00 +15°C° 0 mm 4 m/s 761 mmHg 70%
22:00 +14°C° 0 mm 3 m/s 761 mmHg 72%
23:00 +14°C° 0 mm 3 m/s 761 mmHg 75%

26 Janeiro, Terça-feira

Tempo Temperatura Precipitação Vento Pressão Humidade
00:00 +14°C° 0 mm 3 m/s 760 mmHg 77%
01:00 +14°C° 0 mm 3 m/s 760 mmHg 78%
02:00 +14°C° 0 mm 3 m/s 760 mmHg 79%
03:00 +14°C° 0 mm 3 m/s 760 mmHg 80%
04:00 +14°C° 0 mm 3 m/s 760 mmHg 81%
05:00 +13°C° 0 mm 4 m/s 760 mmHg 82%
06:00 +13°C° 0 mm 4 m/s 760 mmHg 83%
07:00 +15°C° 0 mm 4 m/s 761 mmHg 72%
08:00 +17°C° 0 mm 5 m/s 761 mmHg 61%
09:00 +20°C° 0 mm 5 m/s 762 mmHg 50%
10:00 +22°C° 0 mm 5 m/s 761 mmHg 42%
11:00 +25°C° 0 mm 5 m/s 761 mmHg 34%
12:00 +27°C° 0 mm 6 m/s 760 mmHg 25%
13:00 +27°C° 0 mm 6 m/s 760 mmHg 26%
14:00 +27°C° 0 mm 6 m/s 759 mmHg 27%
15:00 +27°C° 0 mm 6 m/s 759 mmHg 27%
16:00 +24°C° 0 mm 6 m/s 759 mmHg 33%
17:00 +21°C° 0 mm 5 m/s 759 mmHg 39%
18:00 +19°C° 0 mm 4 m/s 759 mmHg 45%
19:00 +18°C° 0 mm 4 m/s 760 mmHg 51%
20:00 +17°C° 0 mm 4 m/s 760 mmHg 58%
21:00 +15°C° 0 mm 4 m/s 760 mmHg 64%
22:00 +15°C° 0 mm 4 m/s 760 mmHg 66%
23:00 +15°C° 0 mm 4 m/s 760 mmHg 68%

27 Janeiro, Quarta-feira

Tempo Temperatura Precipitação Vento Pressão Humidade
00:00 +16°C° 0 mm 3 m/s 759 mmHg 70%
01:00 +14°C° 0 mm 3 m/s 759 mmHg 71%
02:00 +14°C° 0 mm 3 m/s 759 mmHg 71%
03:00 +14°C° 0 mm 3 m/s 759 mmHg 72%
04:00 +14°C° 0 mm 3 m/s 759 mmHg 73%
05:00 +14°C° 0 mm 3 m/s 759 mmHg 74%
06:00 +14°C° 0 mm 3 m/s 760 mmHg 75%
07:00 +17°C° 0 mm 4 m/s 760 mmHg 65%
08:00 +19°C° 0 mm 4 m/s 760 mmHg 54%
09:00 +21°C° 0 mm 4 m/s 760 mmHg 43%
10:00 +23°C° 0 mm 4 m/s 760 mmHg 36%
11:00 +26°C° 0 mm 4 m/s 760 mmHg 28%
12:00 +27°C° 0 mm 4 m/s 759 mmHg 21%
13:00 +28°C° 0 mm 4 m/s 759 mmHg 21%
14:00 +28°C° 0 mm 4 m/s 758 mmHg 20%
15:00 +28°C° 0 mm 4 m/s 758 mmHg 20%
16:00 +25°C° 0 mm 4 m/s 758 mmHg 29%
17:00 +21°C° 0 mm 3 m/s 758 mmHg 37%
18:00 +19°C° 0 mm 3 m/s 758 mmHg 45%
19:00 +17°C° 0 mm 2 m/s 758 mmHg 51%
20:00 +16°C° 0 mm 2 m/s 758 mmHg 56%
21:00 +15°C° 0 mm 1 m/s 758 mmHg 62%
22:00 +15°C° 0 mm 1 m/s 758 mmHg 63%
23:00 +14°C° 0 mm 2 m/s 758 mmHg 65%

28 Janeiro, Quinta-feira

Tempo Temperatura Precipitação Vento Pressão Humidade
00:00 +14°C° 0 mm 2 m/s 757 mmHg 66%
01:00 +13°C° 0 mm 1 m/s 757 mmHg 69%
02:00 +13°C° 0 mm 1 m/s 757 mmHg 71%
03:00 +12°C° 0 mm 1 m/s 757 mmHg 74%
04:00 +11°C° 0 mm 0 m/s 757 mmHg 74%
05:00 +11°C° 0 mm 0 m/s 757 mmHg 75%
06:00 +10°C° 0 mm 0 m/s 758 mmHg 76%
07:00 +13°C° 0 mm 0 m/s 758 mmHg 63%
08:00 +16°C° 0 mm 0 m/s 758 mmHg 51%
09:00 +20°C° 0 mm 0 m/s 759 mmHg 39%
10:00 +21°C° 0 mm 0 m/s 758 mmHg 34%
11:00 +23°C° 0 mm 0 m/s 758 mmHg 28%
12:00 +25°C° 0 mm 0 m/s 758 mmHg 22%
13:00 +27°C° 0 mm 1 m/s 757 mmHg 23%
14:00 +28°C° 0 mm 1 m/s 757 mmHg 23%
15:00 +28°C° 0 mm 2 m/s 756 mmHg 23%
16:00 +25°C° 0 mm 2 m/s 756 mmHg 36%
17:00 +21°C° 0 mm 3 m/s 756 mmHg 49%
18:00 +19°C° 0 mm 3 m/s 757 mmHg 61%
19:00 +18°C° 0 mm 3 m/s 757 mmHg 62%
20:00 +18°C° 0 mm 3 m/s 757 mmHg 62%
21:00 +18°C° 0 mm 3 m/s 757 mmHg 62%
Mostrar mais